Portada
METAR-TAF:

METAR-TAF

Aeropuertos :

Castellón de la Plana, España

Aeropuerto de Castellón-Costa Azahar

latitud: 40-12-35N, longitud: 0-04-11E, altitud: 360 m

Observación

El informe se hizo hace 23 minutos, a las 18:00 UTC
Viento 6 kt del sur-sureste, variando entre sureste y sur
Temperatura 29°C
Humedad 29%
Presión 1019 hPa
Visibilidad 10 km o más

METAR: LECH 221800Z AUTO 16006KT 130V190 9999 NCD 29/09 Q1019

Hora: 20:23 (18:23 UTC)


TAF: falta

Observaciones y pronósticos meteorológicos de más de 4000 aeropuertos (mensajes METAR y TAF).

Los puntos amarillos y rojos representan las estaciones disponibles.

Ponga el ratón en el punto deseado para ver el nombre de la estación.

Haga clic para ver las observaciones y los pronósticos meteorológicos.

Para cambiar el mapa : haga clic en los botones verdes con una cruz de color negro para hacer un zoom, en el botón verde con un guión para alejar o en las flechas verdes para mapas adyacentes.


METAR-TAF: